Time,TemperatureF,DewpointF,PressureIn,WindDirection,WindDirectionDegrees,WindSpeedMPH,WindSpeedGustMPH,Humidity,HourlyPrecipIn,Conditions,Clouds,dailyrainin,SoftwareType,DateUTC
2013-11-20 00:02:00,10.1,7.0,29.82,West,270,9.0,15.0,87,0.00,,---,0.00,VWS V13.00,2013-11-20 07:02:00,
2013-11-20 00:07:00,10.2,7.4,29.82,West,275,13.0,13.0,88,0.00,,---,0.00,VWS V13.00,2013-11-20 07:07:00,
2013-11-20 00:12:00,10.3,7.5,29.82,WNW,288,8.0,13.0,88,0.00,,---,0.00,VWS V13.00,2013-11-20 07:12:00,
2013-11-20 00:17:00,10.4,7.6,29.82,WNW,291,11.0,13.0,88,0.00,,---,0.00,VWS V13.00,2013-11-20 07:17:00,
2013-11-20 00:22:00,10.6,7.8,29.82,WNW,291,10.0,13.0,88,0.00,,---,0.00,VWS V13.00,2013-11-20 07:22:00,
2013-11-20 00:27:00,10.7,7.8,29.82,WNW,286,9.0,13.0,88,0.00,,---,0.00,VWS V13.00,2013-11-20 07:27:00,
2013-11-20 00:32:00,10.8,7.9,29.82,WNW,287,10.0,13.0,88,0.00,,---,0.00,VWS V13.00,2013-11-20 07:32:00,
2013-11-20 00:37:00,10.8,7.9,29.83,WNW,298,10.0,12.0,88,0.00,,---,0.00,VWS V13.00,2013-11-20 07:37:00,
2013-11-20 00:42:00,10.7,7.8,29.83,WNW,284,11.0,13.0,88,0.00,,---,0.00,VWS V13.00,2013-11-20 07:42:00,
2013-11-20 00:47:00,10.6,7.8,29.83,West,281,11.0,13.0,88,0.00,,---,0.00,VWS V13.00,2013-11-20 07:47:00,
2013-11-20 00:52:00,10.5,7.7,29.82,WNW,294,10.0,13.0,88,0.00,,---,0.00,VWS V13.00,2013-11-20 07:52:00,
2013-11-20 00:57:00,10.4,7.6,29.82,West,269,10.0,13.0,88,0.00,,---,0.00,VWS V13.00,2013-11-20 07:57:00,
2013-11-20 01:02:00,10.4,7.6,29.82,West,272,9.0,13.0,88,0.00,,---,0.00,VWS V13.00,2013-11-20 08:02:00,
2013-11-20 01:07:00,10.4,7.6,29.82,West,273,7.0,10.0,88,0.00,,---,0.00,VWS V13.00,2013-11-20 08:07:00,
2013-11-20 01:12:00,10.4,7.6,29.82,West,276,10.0,12.0,88,0.00,,---,0.00,VWS V13.00,2013-11-20 08:12:00,
2013-11-20 01:17:00,10.5,7.7,29.82,West,281,10.0,13.0,88,0.00,,---,0.00,VWS V13.00,2013-11-20 08:17:00,
2013-11-20 01:22:00,10.5,7.7,29.83,West,270,10.0,13.0,88,0.00,,---,0.00,VWS V13.00,2013-11-20 08:22:00,
2013-11-20 01:27:00,10.6,7.8,29.83,West,267,9.0,13.0,88,0.00,,---,0.00,VWS V13.00,2013-11-20 08:27:00,
2013-11-20 01:32:00,10.5,7.7,29.83,WNW,286,9.0,13.0,88,0.00,,---,0.00,VWS V13.00,2013-11-20 08:32:00,
2013-11-20 01:37:00,10.4,7.6,29.83,West,274,8.0,11.0,88,0.00,,---,0.00,VWS V13.00,2013-11-20 08:37:00,
2013-11-20 01:42:00,10.4,7.6,29.83,West,278,9.0,11.0,88,0.00,,---,0.00,VWS V13.00,2013-11-20 08:42:00,
2013-11-20 01:47:00,10.5,7.7,29.83,West,279,6.0,12.0,88,0.00,,---,0.00,VWS V13.00,2013-11-20 08:47:00,
2013-11-20 01:52:00,10.5,7.7,29.84,West,267,10.0,12.0,88,0.00,,---,0.00,VWS V13.00,2013-11-20 08:52:00,
2013-11-20 01:57:00,10.5,7.7,29.84,West,270,9.0,12.0,88,0.00,,---,0.00,VWS V13.00,2013-11-20 08:57:00,
2013-11-20 02:02:00,10.5,7.7,29.84,West,266,10.0,12.0,88,0.00,,---,0.00,VWS V13.00,2013-11-20 09:02:00,
2013-11-20 02:07:00,10.5,7.7,29.85,West,265,7.0,9.0,88,0.00,,---,0.00,VWS V13.00,2013-11-20 09:07:00,
2013-11-20 02:12:00,10.6,7.8,29.85,WNW,292,10.0,10.0,88,0.00,,---,0.00,VWS V13.00,2013-11-20 09:12:00,
2013-11-20 02:17:00,10.5,7.7,29.85,WNW,289,4.0,11.0,88,0.00,,---,0.00,VWS V13.00,2013-11-20 09:17:00,
2013-11-20 02:22:00,10.5,7.7,29.85,WNW,291,7.0,11.0,88,0.00,,---,0.00,VWS V13.00,2013-11-20 09:22:00,
2013-11-20 02:27:00,10.5,7.7,29.85,WNW,287,6.0,11.0,88,0.00,,---,0.00,VWS V13.00,2013-11-20 09:27:00,
2013-11-20 02:32:00,10.5,7.7,29.85,West,273,7.0,11.0,88,0.00,,---,0.00,VWS V13.00,2013-11-20 09:32:00,
2013-11-20 02:37:00,10.5,7.7,29.85,WNW,283,6.0,9.0,88,0.00,,---,0.00,VWS V13.00,2013-11-20 09:37:00,
2013-11-20 02:42:00,10.4,7.6,29.85,WNW,284,4.0,9.0,88,0.00,,---,0.00,VWS V13.00,2013-11-20 09:42:00,
2013-11-20 02:47:00,10.5,7.7,29.85,West,272,9.0,10.0,88,0.00,,---,0.00,VWS V13.00,2013-11-20 09:47:00,
2013-11-20 02:52:00,10.5,7.7,29.86,West,280,6.0,11.0,88,0.00,,---,0.00,VWS V13.00,2013-11-20 09:52:00,
2013-11-20 02:57:00,10.4,7.6,29.86,WNW,284,6.0,11.0,88,0.00,,---,0.00,VWS V13.00,2013-11-20 09:57:00,
2013-11-20 03:02:00,10.4,7.6,29.86,WNW,284,7.0,11.0,88,0.00,,---,0.00,VWS V13.00,2013-11-20 10:02:00,
2013-11-20 03:07:00,10.4,7.6,29.87,WNW,282,9.0,10.0,88,0.00,,---,0.00,VWS V13.00,2013-11-20 10:07:00,
2013-11-20 03:12:00,10.4,7.6,29.87,West,281,5.0,10.0,88,0.00,,---,0.00,VWS V13.00,2013-11-20 10:12:00,
2013-11-20 03:17:00,10.3,7.5,29.87,WNW,284,4.0,10.0,88,0.00,,---,0.00,VWS V13.00,2013-11-20 10:17:00,
2013-11-20 03:22:00,10.3,7.5,29.86,West,275,10.0,10.0,88,0.00,,---,0.00,VWS V13.00,2013-11-20 10:22:00,
2013-11-20 03:27:00,10.2,7.1,29.86,WNW,288,6.0,11.0,87,0.00,,---,0.00,VWS V13.00,2013-11-20 10:27:00,
2013-11-20 03:32:00,10.2,7.4,29.86,WNW,282,7.0,11.0,88,0.00,,---,0.00,VWS V13.00,2013-11-20 10:32:00,
2013-11-20 03:37:00,10.1,7.3,29.86,WNW,284,5.0,6.0,88,0.00,,---,0.00,VWS V13.00,2013-11-20 10:37:00,
2013-11-20 03:42:00,10.2,7.4,29.86,WNW,284,6.0,9.0,88,0.00,,---,0.00,VWS V13.00,2013-11-20 10:42:00,
2013-11-20 03:47:00,10.1,7.3,29.86,WNW,284,6.0,9.0,88,0.00,,---,0.00,VWS V13.00,2013-11-20 10:47:00,
2013-11-20 03:52:00,10.1,7.3,29.89,WNW,283,4.0,9.0,88,0.00,,---,0.00,VWS V13.00,2013-11-20 10:52:00,
2013-11-20 03:57:00,10.1,7.3,29.89,WNW,284,0.0,9.0,88,0.00,,---,0.00,VWS V13.00,2013-11-20 10:57:00,
2013-11-20 04:02:00,10.1,7.3,29.89,WNW,283,0.0,9.0,88,0.00,,---,0.00,VWS V13.00,2013-11-20 11:02:00,
2013-11-20 04:07:00,10.1,7.3,29.88,WNW,284,0.0,9.0,88,0.00,,---,0.00,VWS V13.00,2013-11-20 11:07:00,
2013-11-20 04:12:00,10.1,7.3,29.88,WNW,283,4.0,7.0,88,0.00,,---,0.00,VWS V13.00,2013-11-20 11:12:00,
2013-11-20 04:17:00,10.2,7.4,29.88,WNW,284,1.0,7.0,88,0.00,,---,0.00,VWS V13.00,2013-11-20 11:17:00,
2013-11-20 04:22:00,10.2,7.4,29.89,WNW,284,5.0,7.0,88,0.00,,---,0.00,VWS V13.00,2013-11-20 11:22:00,
2013-11-20 04:27:00,10.1,7.3,29.89,WNW,291,7.0,10.0,88,0.00,,---,0.00,VWS V13.00,2013-11-20 11:27:00,
2013-11-20 04:32:00,10.1,7.3,29.89,WNW,292,6.0,10.0,88,0.00,,---,0.00,VWS V13.00,2013-11-20 11:32:00,
2013-11-20 04:37:00,10.0,6.9,29.89,WNW,294,5.0,6.0,87,0.00,,---,0.00,VWS V13.00,2013-11-20 11:37:00,
2013-11-20 04:42:00,9.9,6.8,29.89,WNW,294,0.0,6.0,87,0.00,,---,0.00,VWS V13.00,2013-11-20 11:42:00,
2013-11-20 04:47:00,9.9,7.1,29.89,WNW,293,2.0,6.0,88,0.00,,---,0.00,VWS V13.00,2013-11-20 11:47:00,
2013-11-20 04:52:00,9.9,7.1,29.90,WNW,294,6.0,7.0,88,0.00,,---,0.00,VWS V13.00,2013-11-20 11:52:00,
2013-11-20 04:57:00,9.9,7.1,29.90,WNW,294,3.0,7.0,88,0.00,,---,0.00,VWS V13.00,2013-11-20 11:57:00,
2013-11-20 05:02:00,9.9,7.1,29.90,WNW,294,0.0,7.0,88,0.00,,---,0.00,VWS V13.00,2013-11-20 12:02:00,
2013-11-20 05:07:00,9.9,7.1,29.90,WNW,294,3.0,4.0,88,0.00,,---,0.00,VWS V13.00,2013-11-20 12:07:00,
2013-11-20 05:12:00,9.9,7.1,29.90,WNW,294,3.0,4.0,88,0.00,,---,0.00,VWS V13.00,2013-11-20 12:12:00,
2013-11-20 05:17:00,9.9,7.1,29.90,WNW,296,5.0,7.0,88,0.00,,---,0.00,VWS V13.00,2013-11-20 12:17:00,
2013-11-20 05:22:00,9.9,7.1,29.91,WNW,296,6.0,7.0,88,0.00,,---,0.00,VWS V13.00,2013-11-20 12:22:00,
2013-11-20 05:27:00,9.9,7.1,29.91,WNW,300,5.0,9.0,88,0.00,,---,0.00,VWS V13.00,2013-11-20 12:27:00,
2013-11-20 05:32:00,9.8,7.0,29.91,WNW,303,3.0,9.0,88,0.00,,---,0.00,VWS V13.00,2013-11-20 12:32:00,
2013-11-20 05:37:00,9.8,7.0,29.91,WNW,303,5.0,7.0,88,0.00,,---,0.00,VWS V13.00,2013-11-20 12:37:00,
2013-11-20 05:42:00,9.9,7.1,29.91,WNW,291,7.0,8.0,88,0.00,,---,0.00,VWS V13.00,2013-11-20 12:42:00,
2013-11-20 05:47:00,9.8,7.0,29.91,WNW,292,6.0,8.0,88,0.00,,---,0.00,VWS V13.00,2013-11-20 12:47:00,
2013-11-20 05:52:00,9.7,6.9,29.95,WNW,294,5.0,9.0,88,0.00,,---,0.00,VWS V13.00,2013-11-20 12:52:00,
2013-11-20 05:57:00,9.7,6.9,29.95,WNW,294,3.0,9.0,88,0.00,,---,0.00,VWS V13.00,2013-11-20 12:57:00,
2013-11-20 06:02:00,9.8,7.0,29.95,WNW,291,4.0,9.0,88,0.00,,---,0.00,VWS V13.00,2013-11-20 13:02:00,
2013-11-20 06:07:00,9.8,7.0,29.96,WNW,286,6.0,7.0,88,0.00,,---,0.00,VWS V13.00,2013-11-20 13:07:00,
2013-11-20 06:12:00,9.9,7.1,29.96,WNW,290,12.0,14.0,88,0.00,,---,0.00,VWS V13.00,2013-11-20 13:12:00,
2013-11-20 06:17:00,9.7,6.9,29.96,WNW,282,11.0,14.0,88,0.00,,---,0.00,VWS V13.00,2013-11-20 13:17:00,
2013-11-20 06:22:00,9.6,6.5,29.96,WNW,296,11.0,14.0,87,0.00,,---,0.00,VWS V13.00,2013-11-20 13:22:00,
2013-11-20 06:27:00,9.6,6.8,29.96,WNW,296,11.0,14.0,88,0.00,,---,0.00,VWS V13.00,2013-11-20 13:27:00,
2013-11-20 06:32:00,9.6,6.8,29.96,WNW,294,12.0,15.0,88,0.00,,---,0.00,VWS V13.00,2013-11-20 13:32:00,
2013-11-20 06:37:00,9.6,6.8,29.97,WNW,302,10.0,10.0,88,0.00,,---,0.00,VWS V13.00,2013-11-20 13:37:00,
2013-11-20 06:42:00,9.6,6.8,29.97,WNW,299,8.0,11.0,88,0.00,,---,0.00,VWS V13.00,2013-11-20 13:42:00,
2013-11-20 06:47:00,9.7,6.9,29.97,WNW,302,6.0,11.0,88,0.00,,---,0.00,VWS V13.00,2013-11-20 13:47:00,
2013-11-20 06:52:00,9.6,6.8,30.09,WNW,295,9.0,11.0,88,0.00,,---,0.00,VWS V13.00,2013-11-20 13:52:00,
2013-11-20 06:57:00,9.5,6.4,30.09,WNW,298,9.0,11.0,87,0.00,,---,0.00,VWS V13.00,2013-11-20 13:57:00,
2013-11-20 07:02:00,9.4,6.3,30.09,NW,306,8.0,11.0,87,0.00,,---,0.00,VWS V13.00,2013-11-20 14:02:00,
2013-11-20 07:07:00,9.3,6.5,30.09,NW,306,11.0,12.0,88,0.00,,---,0.00,VWS V13.00,2013-11-20 14:07:00,
2013-11-20 07:12:00,9.2,6.4,30.09,WNW,303,10.0,13.0,88,0.00,,---,0.00,VWS V13.00,2013-11-20 14:12:00,
2013-11-20 07:17:00,9.2,6.1,30.09,NW,304,6.0,13.0,87,0.00,,---,0.00,VWS V13.00,2013-11-20 14:17:00,
2013-11-20 07:22:00,9.1,6.0,30.11,WNW,302,9.0,13.0,87,0.00,,---,0.00,VWS V13.00,2013-11-20 14:22:00,
2013-11-20 07:27:00,9.1,6.0,30.11,NW,307,9.0,13.0,87,0.00,,---,0.00,VWS V13.00,2013-11-20 14:27:00,
2013-11-20 07:32:00,9.1,6.0,30.11,NW,306,10.0,13.0,87,0.00,,---,0.00,VWS V13.00,2013-11-20 14:32:00,
2013-11-20 07:37:00,9.1,6.0,30.11,NW,306,9.0,10.0,87,0.00,,---,0.00,VWS V13.00,2013-11-20 14:37:00,
2013-11-20 07:42:00,9.0,5.9,30.11,WNW,302,9.0,12.0,87,0.00,,---,0.00,VWS V13.00,2013-11-20 14:42:00,
2013-11-20 07:47:00,9.0,5.9,30.11,NW,307,7.0,12.0,87,0.00,,---,0.00,VWS V13.00,2013-11-20 14:47:00,
2013-11-20 07:52:00,9.0,5.9,30.16,WNW,300,9.0,12.0,87,0.00,,---,0.00,VWS V13.00,2013-11-20 14:52:00,
2013-11-20 07:57:00,9.0,5.9,30.16,NW,306,5.0,12.0,87,0.00,,---,0.00,VWS V13.00,2013-11-20 14:57:00,
2013-11-20 08:02:00,9.0,5.9,30.16,NNW,332,3.0,12.0,87,0.00,,---,0.00,VWS V13.00,2013-11-20 15:02:00,
2013-11-20 08:07:00,8.9,5.8,30.17,NNW,334,6.0,6.0,87,0.00,,---,0.00,VWS V13.00,2013-11-20 15:07:00,
2013-11-20 08:12:00,8.7,5.6,30.17,NNW,338,11.0,11.0,87,0.00,,---,0.00,VWS V13.00,2013-11-20 15:12:00,
2013-11-20 08:17:00,8.5,5.4,30.17,NNW,340,11.0,15.0,87,0.00,,---,0.00,VWS V13.00,2013-11-20 15:17:00,
2013-11-20 08:22:00,8.3,5.2,30.19,NW,321,7.0,15.0,87,0.00,,---,0.00,VWS V13.00,2013-11-20 15:22:00,
2013-11-20 08:27:00,8.3,5.2,30.19,WNW,303,13.0,15.0,87,0.00,,---,0.00,VWS V13.00,2013-11-20 15:27:00,
2013-11-20 08:32:00,8.2,5.1,30.19,NW,323,6.0,15.0,87,0.00,,---,0.00,VWS V13.00,2013-11-20 15:32:00,
2013-11-20 08:37:00,8.0,4.9,30.20,NW,314,8.0,10.0,87,0.00,,---,0.00,VWS V13.00,2013-11-20 15:37:00,
2013-11-20 08:42:00,7.9,4.8,30.20,NW,320,8.0,11.0,87,0.00,,---,0.00,VWS V13.00,2013-11-20 15:42:00,
2013-11-20 08:47:00,7.8,4.7,30.20,WNW,303,10.0,12.0,87,0.00,,---,0.00,VWS V13.00,2013-11-20 15:47:00,
2013-11-20 08:52:00,7.6,4.3,30.23,WNW,293,12.0,16.0,86,0.00,,---,0.00,VWS V13.00,2013-11-20 15:52:00,
2013-11-20 08:57:00,7.4,4.1,30.23,WNW,294,16.0,18.0,86,0.00,,---,0.00,VWS V13.00,2013-11-20 15:57:00,
2013-11-20 09:02:00,7.2,3.9,30.23,WNW,302,17.0,20.0,86,0.00,,---,0.00,VWS V13.00,2013-11-20 16:02:00,
2013-11-20 09:07:00,7.1,3.8,30.24,NW,306,16.0,17.0,86,0.00,,---,0.00,VWS V13.00,2013-11-20 16:07:00,
2013-11-20 09:12:00,6.9,3.6,30.24,NW,306,18.0,20.0,86,0.00,,---,0.00,VWS V13.00,2013-11-20 16:12:00,
2013-11-20 09:17:00,6.8,3.5,30.24,NW,306,15.0,20.0,86,0.00,,---,0.00,VWS V13.00,2013-11-20 16:17:00,
2013-11-20 09:22:00,6.8,3.5,30.25,NW,307,11.0,20.0,86,0.00,,---,0.00,VWS V13.00,2013-11-20 16:22:00,
2013-11-20 09:27:00,6.8,3.5,30.25,WNW,298,15.0,20.0,86,0.00,,---,0.00,VWS V13.00,2013-11-20 16:27:00,
2013-11-20 09:32:00,6.7,3.4,30.25,WNW,294,13.0,20.0,86,0.00,,---,0.00,VWS V13.00,2013-11-20 16:32:00,
2013-11-20 09:37:00,6.5,3.2,30.27,WNW,290,17.0,17.0,86,0.00,,---,0.00,VWS V13.00,2013-11-20 16:37:00,
2013-11-20 09:42:00,6.5,3.2,30.27,WNW,290,18.0,20.0,86,0.00,,---,0.00,VWS V13.00,2013-11-20 16:42:00,
2013-11-20 09:47:00,6.5,3.2,30.27,WNW,296,15.0,21.0,86,0.00,,---,0.00,VWS V13.00,2013-11-20 16:47:00,
2013-11-20 09:52:00,6.5,3.2,30.29,WNW,287,14.0,21.0,86,0.00,,---,0.00,VWS V13.00,2013-11-20 16:52:00,
2013-11-20 09:57:00,6.4,3.1,30.29,WNW,286,17.0,21.0,86,0.00,,---,0.00,VWS V13.00,2013-11-20 16:57:00,
2013-11-20 10:02:00,6.3,3.0,30.29,WNW,287,15.0,21.0,86,0.00,,---,0.00,VWS V13.00,2013-11-20 17:02:00,
2013-11-20 10:07:00,6.3,3.0,30.30,WNW,286,15.0,18.0,86,0.00,,---,0.00,VWS V13.00,2013-11-20 17:07:00,
2013-11-20 10:12:00,6.2,2.9,30.30,WNW,292,13.0,18.0,86,0.00,,---,0.00,VWS V13.00,2013-11-20 17:12:00,
2013-11-20 10:17:00,6.2,2.9,30.30,WNW,287,15.0,20.0,86,0.00,,---,0.00,VWS V13.00,2013-11-20 17:17:00,
2013-11-20 10:22:00,6.2,2.9,30.31,WNW,297,14.0,23.0,86,0.00,,---,0.00,VWS V13.00,2013-11-20 17:22:00,
2013-11-20 10:27:00,6.2,2.9,30.31,WNW,283,17.0,23.0,86,0.00,,---,0.00,VWS V13.00,2013-11-20 17:27:00,
2013-11-20 10:32:00,6.3,3.0,30.31,WNW,289,15.0,23.0,86,0.00,,---,0.00,VWS V13.00,2013-11-20 17:32:00,
2013-11-20 10:37:00,6.3,3.0,30.32,WNW,287,18.0,21.0,86,0.00,,---,0.00,VWS V13.00,2013-11-20 17:37:00,
2013-11-20 10:42:00,6.2,2.9,30.32,WNW,287,19.0,23.0,86,0.00,,---,0.00,VWS V13.00,2013-11-20 17:42:00,
2013-11-20 10:47:00,6.1,2.8,30.32,WNW,287,19.0,23.0,86,0.00,,---,0.00,VWS V13.00,2013-11-20 17:47:00,
2013-11-20 10:52:00,6.0,2.7,30.33,WNW,282,17.0,23.0,86,0.00,,---,0.00,VWS V13.00,2013-11-20 17:52:00,
2013-11-20 10:57:00,5.7,2.4,30.33,WNW,292,17.0,23.0,86,0.00,,---,0.00,VWS V13.00,2013-11-20 17:57:00,
2013-11-20 11:02:00,5.5,2.0,30.33,WNW,296,20.0,23.0,85,0.00,,---,0.00,VWS V13.00,2013-11-20 18:02:00,
2013-11-20 11:07:00,5.2,1.7,30.34,West,280,18.0,18.0,85,0.00,,---,0.00,VWS V13.00,2013-11-20 18:07:00,
2013-11-20 11:12:00,5.2,1.9,30.34,WNW,290,16.0,21.0,86,0.00,,---,0.00,VWS V13.00,2013-11-20 18:12:00,
2013-11-20 11:17:00,5.1,1.8,30.34,WNW,290,17.0,21.0,86,0.00,,---,0.00,VWS V13.00,2013-11-20 18:17:00,
2013-11-20 11:22:00,5.1,1.6,30.35,West,281,16.0,22.0,85,0.00,,---,0.00,VWS V13.00,2013-11-20 18:22:00,
2013-11-20 11:27:00,5.2,1.9,30.35,WNW,290,17.0,22.0,86,0.00,,---,0.00,VWS V13.00,2013-11-20 18:27:00,
2013-11-20 11:32:00,5.1,1.6,30.35,WNW,283,16.0,22.0,85,0.00,,---,0.00,VWS V13.00,2013-11-20 18:32:00,
2013-11-20 11:37:00,5.0,1.5,30.36,West,280,15.0,17.0,85,0.00,,---,0.00,VWS V13.00,2013-11-20 18:37:00,
2013-11-20 11:42:00,4.9,1.4,30.36,WNW,287,15.0,18.0,85,0.00,,---,0.00,VWS V13.00,2013-11-20 18:42:00,
2013-11-20 11:47:00,4.6,1.1,30.36,WNW,283,16.0,19.0,85,0.00,,---,0.00,VWS V13.00,2013-11-20 18:47:00,
2013-11-20 11:52:00,4.5,1.0,30.34,West,279,15.0,19.0,85,0.00,,---,0.00,VWS V13.00,2013-11-20 18:52:00,
2013-11-20 11:57:00,4.5,1.0,30.34,West,280,16.0,20.0,85,0.00,,---,0.00,VWS V13.00,2013-11-20 18:57:00,
2013-11-20 12:02:00,4.4,0.9,30.34,West,279,12.0,20.0,85,0.00,,---,0.00,VWS V13.00,2013-11-20 19:02:00,
2013-11-20 12:07:00,4.4,0.9,30.37,WNW,288,17.0,20.0,85,0.00,,---,0.00,VWS V13.00,2013-11-20 19:07:00,
2013-11-20 12:12:00,4.2,0.7,30.37,WNW,283,11.0,20.0,85,0.00,,---,0.00,VWS V13.00,2013-11-20 19:12:00,
2013-11-20 12:17:00,4.2,0.7,30.37,West,280,13.0,20.0,85,0.00,,---,0.00,VWS V13.00,2013-11-20 19:17:00,
2013-11-20 12:22:00,4.2,0.7,30.38,WNW,288,14.0,20.0,85,0.00,,---,0.00,VWS V13.00,2013-11-20 19:22:00,
2013-11-20 12:27:00,4.2,0.7,30.38,WNW,284,13.0,20.0,85,0.00,,---,0.00,VWS V13.00,2013-11-20 19:27:00,
2013-11-20 12:32:00,4.3,0.8,30.38,WNW,283,18.0,22.0,85,0.00,,---,0.00,VWS V13.00,2013-11-20 19:32:00,
2013-11-20 12:37:00,4.2,0.7,30.39,WNW,291,16.0,17.0,85,0.00,,---,0.00,VWS V13.00,2013-11-20 19:37:00,
2013-11-20 12:42:00,4.3,0.8,30.39,West,275,12.0,20.0,85,0.00,,---,0.00,VWS V13.00,2013-11-20 19:42:00,
2013-11-20 12:47:00,4.3,0.8,30.39,West,275,20.0,21.0,85,0.00,,---,0.00,VWS V13.00,2013-11-20 19:47:00,
2013-11-20 12:52:00,4.2,0.7,30.41,WNW,285,15.0,22.0,85,0.00,,---,0.00,VWS V13.00,2013-11-20 19:52:00,
2013-11-20 12:57:00,4.1,0.6,30.41,WNW,284,19.0,22.0,85,0.00,,---,0.00,VWS V13.00,2013-11-20 19:57:00,
2013-11-20 13:02:00,4.0,0.2,30.41,West,281,15.0,23.0,84,0.00,,---,0.00,VWS V13.00,2013-11-20 20:02:00,
2013-11-20 13:07:00,3.9,0.2,30.42,WNW,289,18.0,19.0,84,0.00,,---,0.00,VWS V13.00,2013-11-20 20:07:00,
2013-11-20 13:12:00,3.8,0.1,30.42,WNW,288,17.0,21.0,84,0.00,,---,0.00,VWS V13.00,2013-11-20 20:12:00,
2013-11-20 13:17:00,3.8,0.1,30.42,WNW,288,13.0,21.0,84,0.00,,---,0.00,VWS V13.00,2013-11-20 20:17:00,
2013-11-20 13:22:00,3.8,0.1,30.42,WNW,293,15.0,21.0,84,0.00,,---,0.00,VWS V13.00,2013-11-20 20:22:00,
2013-11-20 13:27:00,3.7,0.0,30.42,West,281,13.0,21.0,84,0.00,,---,0.00,VWS V13.00,2013-11-20 20:27:00,
2013-11-20 13:32:00,3.8,0.1,30.42,WNW,290,18.0,21.0,84,0.00,,---,0.00,VWS V13.00,2013-11-20 20:32:00,
2013-11-20 13:37:00,3.9,0.2,30.43,WNW,283,16.0,16.0,84,0.00,,---,0.00,VWS V13.00,2013-11-20 20:37:00,
2013-11-20 13:42:00,4.0,0.2,30.43,West,281,15.0,17.0,84,0.00,,---,0.00,VWS V13.00,2013-11-20 20:42:00,
2013-11-20 13:47:00,3.9,0.2,30.43,WNW,288,13.0,17.0,84,0.00,,---,0.00,VWS V13.00,2013-11-20 20:47:00,
2013-11-20 13:52:00,3.8,0.1,30.43,WNW,284,10.0,17.0,84,0.00,,---,0.00,VWS V13.00,2013-11-20 20:52:00,
2013-11-20 13:57:00,3.7,0.0,30.43,WNW,286,11.0,20.0,84,0.00,,---,0.00,VWS V13.00,2013-11-20 20:57:00,
2013-11-20 14:02:00,3.7,0.0,30.43,West,281,11.0,20.0,84,0.00,,---,0.00,VWS V13.00,2013-11-20 21:02:00,
2013-11-20 14:07:00,3.8,0.1,30.44,West,276,14.0,14.0,84,0.00,,---,0.00,VWS V13.00,2013-11-20 21:07:00,
2013-11-20 14:12:00,3.8,0.1,30.44,West,279,11.0,18.0,84,0.00,,---,0.00,VWS V13.00,2013-11-20 21:12:00,
2013-11-20 14:17:00,3.8,0.1,30.44,West,277,12.0,18.0,84,0.00,,---,0.00,VWS V13.00,2013-11-20 21:17:00,
2013-11-20 14:22:00,3.8,0.1,30.44,West,273,12.0,18.0,84,0.00,,---,0.00,VWS V13.00,2013-11-20 21:22:00,
2013-11-20 14:27:00,3.8,0.1,30.44,WNW,285,14.0,18.0,84,0.00,,---,0.00,VWS V13.00,2013-11-20 21:27:00,
2013-11-20 14:32:00,3.6,-0.1,30.44,WNW,292,12.0,18.0,84,0.00,,---,0.00,VWS V13.00,2013-11-20 21:32:00,
2013-11-20 14:37:00,3.5,-0.2,30.46,WNW,288,10.0,11.0,84,0.00,,---,0.00,VWS V13.00,2013-11-20 21:37:00,
2013-11-20 14:42:00,3.6,-0.1,30.46,WNW,290,9.0,11.0,84,0.00,,---,0.00,VWS V13.00,2013-11-20 21:42:00,
2013-11-20 14:47:00,3.5,-0.2,30.46,NW,309,6.0,11.0,84,0.00,,---,0.00,VWS V13.00,2013-11-20 21:47:00,
2013-11-20 14:52:00,3.4,-0.3,30.48,NW,311,9.0,11.0,84,0.00,,---,0.00,VWS V13.00,2013-11-20 21:52:00,
2013-11-20 14:57:00,3.3,-0.4,30.48,NW,321,8.0,11.0,84,0.00,,---,0.00,VWS V13.00,2013-11-20 21:57:00,
2013-11-20 15:02:00,3.2,-0.5,30.48,NW,316,7.0,11.0,84,0.00,,---,0.00,VWS V13.00,2013-11-20 22:02:00,
2013-11-20 15:07:00,3.1,-0.6,30.49,NW,307,9.0,10.0,84,0.00,,---,0.00,VWS V13.00,2013-11-20 22:07:00,
2013-11-20 15:12:00,3.1,-0.6,30.49,WNW,299,10.0,12.0,84,0.00,,---,0.00,VWS V13.00,2013-11-20 22:12:00,
2013-11-20 15:17:00,2.9,-0.8,30.49,WNW,303,9.0,12.0,84,0.00,,---,0.00,VWS V13.00,2013-11-20 22:17:00,
2013-11-20 15:22:00,2.9,-0.8,30.49,WNW,299,11.0,13.0,84,0.00,,---,0.00,VWS V13.00,2013-11-20 22:22:00,
2013-11-20 15:27:00,2.8,-0.9,30.49,WNW,300,12.0,13.0,84,0.00,,---,0.00,VWS V13.00,2013-11-20 22:27:00,
2013-11-20 15:32:00,2.7,-1.0,30.49,WNW,290,10.0,13.0,84,0.00,,---,0.00,VWS V13.00,2013-11-20 22:32:00,
2013-11-20 15:37:00,2.7,-1.0,30.51,West,281,10.0,10.0,84,0.00,,---,0.00,VWS V13.00,2013-11-20 22:37:00,
2013-11-20 15:42:00,2.6,-1.1,30.51,West,279,7.0,11.0,84,0.00,,---,0.00,VWS V13.00,2013-11-20 22:42:00,
2013-11-20 15:46:00,2.6,-1.1,30.51,West,276,7.0,11.0,84,0.00,,---,0.00,VWS V13.00,2013-11-20 22:46:00,
2013-11-20 15:52:00,2.6,-1.1,30.52,West,276,6.0,11.0,84,0.00,,---,0.00,VWS V13.00,2013-11-20 22:52:00,
2013-11-20 15:57:00,2.6,-1.1,30.52,West,275,4.0,11.0,84,0.00,,---,0.00,VWS V13.00,2013-11-20 22:57:00,
2013-11-20 16:02:00,2.6,-1.1,30.52,West,272,6.0,11.0,84,0.00,,---,0.00,VWS V13.00,2013-11-20 23:02:00,
2013-11-20 16:06:00,2.6,-1.1,30.53,West,272,4.0,5.0,84,0.00,,---,0.00,VWS V13.00,2013-11-20 23:06:00,
2013-11-20 16:11:00,2.6,-1.1,30.53,West,272,5.0,6.0,84,0.00,,---,0.00,VWS V13.00,2013-11-20 23:11:00,
2013-11-20 16:17:00,2.5,-1.2,30.53,West,272,3.0,6.0,84,0.00,,---,0.00,VWS V13.00,2013-11-20 23:17:00,
2013-11-20 16:22:00,2.5,-1.0,30.53,West,272,4.0,6.0,85,0.00,,---,0.00,VWS V13.00,2013-11-20 23:22:00,
2013-11-20 16:26:00,2.5,-1.0,30.53,West,272,5.0,6.0,85,0.00,,---,0.00,VWS V13.00,2013-11-20 23:26:00,
2013-11-20 16:31:00,2.6,-0.9,30.53,West,272,3.0,6.0,85,0.00,,---,0.00,VWS V13.00,2013-11-20 23:31:00,
2013-11-20 16:36:00,2.6,-0.9,30.54,West,272,0.0,1.0,85,0.00,,---,0.00,VWS V13.00,2013-11-20 23:36:00,
2013-11-20 16:41:00,2.6,-0.9,30.54,West,272,4.0,4.0,85,0.00,,---,0.00,VWS V13.00,2013-11-20 23:41:00,
2013-11-20 16:46:00,2.6,-0.9,30.54,West,272,6.0,6.0,85,0.00,,---,0.00,VWS V13.00,2013-11-20 23:46:00,
2013-11-20 16:51:00,2.5,-1.2,30.55,West,272,3.0,6.0,84,0.00,,---,0.00,VWS V13.00,2013-11-20 23:51:00,
2013-11-20 16:56:00,2.4,-1.3,30.55,West,272,5.0,6.0,84,0.00,,---,0.00,VWS V13.00,2013-11-20 23:56:00,
2013-11-20 17:01:00,2.2,-1.5,30.55,West,272,5.0,6.0,84,0.00,,---,0.00,VWS V13.00,2013-11-21 00:01:00,
2013-11-20 17:06:00,2.0,-1.7,30.55,West,272,3.0,4.0,84,0.00,,---,0.00,VWS V13.00,2013-11-21 00:06:00,
2013-11-20 17:11:00,1.9,-1.8,30.55,West,272,4.0,5.0,84,0.00,,---,0.00,VWS V13.00,2013-11-21 00:11:00,
2013-11-20 17:16:00,1.7,-2.0,30.55,West,272,4.0,5.0,84,0.00,,---,0.00,VWS V13.00,2013-11-21 00:16:00,
2013-11-20 17:21:00,1.4,-2.3,30.56,West,272,5.0,6.0,84,0.00,,---,0.00,VWS V13.00,2013-11-21 00:21:00,
2013-11-20 17:26:00,1.3,-2.4,30.56,West,272,3.0,6.0,84,0.00,,---,0.00,VWS V13.00,2013-11-21 00:26:00,
2013-11-20 17:31:00,1.1,-2.6,30.56,West,272,4.0,6.0,84,0.00,,---,0.00,VWS V13.00,2013-11-21 00:31:00,
2013-11-20 17:36:00,1.0,-2.7,30.57,West,272,4.0,5.0,84,0.00,,---,0.00,VWS V13.00,2013-11-21 00:36:00,
2013-11-20 17:41:00,1.0,-2.7,30.57,West,272,6.0,6.0,84,0.00,,---,0.00,VWS V13.00,2013-11-21 00:41:00,
2013-11-20 17:46:00,0.8,-2.9,30.57,West,272,3.0,6.0,84,0.00,,---,0.00,VWS V13.00,2013-11-21 00:46:00,
2013-11-20 17:51:00,0.6,-3.1,30.58,West,272,0.0,6.0,84,0.00,,---,0.00,VWS V13.00,2013-11-21 00:51:00,
2013-11-20 17:56:00,0.4,-3.3,30.58,West,272,3.0,6.0,84,0.00,,---,0.00,VWS V13.00,2013-11-21 00:56:00,
2013-11-20 18:01:00,0.2,-3.5,30.58,West,272,3.0,6.0,84,0.00,,---,0.00,VWS V13.00,2013-11-21 01:01:00,
2013-11-20 18:06:00,0.2,-3.5,30.58,West,272,4.0,4.0,84,0.00,,---,0.00,VWS V13.00,2013-11-21 01:06:00,
2013-11-20 18:11:00,0.1,-3.9,30.58,West,272,1.0,5.0,83,0.00,,---,0.00,VWS V13.00,2013-11-21 01:11:00,
2013-11-20 18:16:00,-0.1,-4.0,30.58,West,272,2.0,5.0,83,0.00,,---,0.00,VWS V13.00,2013-11-21 01:16:00,
2013-11-20 18:21:00,-0.3,-4.0,30.59,West,272,2.0,5.0,84,0.00,,---,0.00,VWS V13.00,2013-11-21 01:21:00,
2013-11-20 18:26:00,-0.4,-4.1,30.59,West,272,2.0,5.0,84,0.00,,---,0.00,VWS V13.00,2013-11-21 01:26:00,
2013-11-20 18:31:00,-0.3,-4.0,30.59,West,272,4.0,5.0,84,0.00,,---,0.00,VWS V13.00,2013-11-21 01:31:00,
2013-11-20 18:36:00,-0.3,-4.0,30.59,West,272,1.0,5.0,84,0.00,,---,0.00,VWS V13.00,2013-11-21 01:36:00,
2013-11-20 18:41:00,-0.4,-4.1,30.59,West,272,3.0,4.0,84,0.00,,---,0.00,VWS V13.00,2013-11-21 01:41:00,
2013-11-20 18:46:00,-0.5,-4.2,30.59,West,272,3.0,4.0,84,0.00,,---,0.00,VWS V13.00,2013-11-21 01:46:00,
2013-11-20 18:51:00,-0.4,-4.1,30.61,West,272,2.0,4.0,84,0.00,,---,0.00,VWS V13.00,2013-11-21 01:51:00,
2013-11-20 18:56:00,-0.4,-4.1,30.61,West,272,2.0,4.0,84,0.00,,---,0.00,VWS V13.00,2013-11-21 01:56:00,
2013-11-20 19:01:00,-0.4,-4.1,30.61,West,272,1.0,4.0,84,0.00,,---,0.00,VWS V13.00,2013-11-21 02:01:00,
2013-11-20 19:06:00,-0.4,-4.1,30.62,West,272,2.0,4.0,84,0.00,,---,0.00,VWS V13.00,2013-11-21 02:06:00,
2013-11-20 19:11:00,-0.4,-4.1,30.62,West,272,1.0,3.0,84,0.00,,---,0.00,VWS V13.00,2013-11-21 02:11:00,
2013-11-20 19:16:00,-0.7,-4.6,30.62,West,272,3.0,4.0,83,0.00,,---,0.00,VWS V13.00,2013-11-21 02:16:00,
2013-11-20 19:21:00,-1.2,-5.1,30.62,West,272,1.0,4.0,83,0.00,,---,0.00,VWS V13.00,2013-11-21 02:21:00,
2013-11-20 19:26:00,-1.6,-5.5,30.62,West,269,4.0,5.0,83,0.00,,---,0.00,VWS V13.00,2013-11-21 02:26:00,
2013-11-20 19:31:00,-2.1,-6.0,30.62,WSW,257,3.0,5.0,83,0.00,,---,0.00,VWS V13.00,2013-11-21 02:31:00,
2013-11-20 19:36:00,-2.5,-6.4,30.63,WSW,250,3.0,5.0,83,0.00,,---,0.00,VWS V13.00,2013-11-21 02:36:00,
2013-11-20 19:41:00,-3.0,-7.1,30.63,WSW,250,4.0,4.0,82,0.00,,---,0.00,VWS V13.00,2013-11-21 02:41:00,
2013-11-20 19:46:00,-3.2,-7.1,30.63,WSW,249,3.0,4.0,83,0.00,,---,0.00,VWS V13.00,2013-11-21 02:46:00,
2013-11-20 19:51:00,-3.3,-7.2,30.65,SW,236,6.0,6.0,83,0.00,,---,0.00,VWS V13.00,2013-11-21 02:51:00,
2013-11-20 19:56:00,-3.6,-7.5,30.65,SW,225,5.0,6.0,83,0.00,,---,0.00,VWS V13.00,2013-11-21 02:56:00,
2013-11-20 20:01:00,-3.8,-7.7,30.65,SW,225,3.0,6.0,83,0.00,,---,0.00,VWS V13.00,2013-11-21 03:01:00,
2013-11-20 20:06:00,-3.9,-7.8,30.65,SW,225,4.0,6.0,83,0.00,,---,0.00,VWS V13.00,2013-11-21 03:06:00,
2013-11-20 20:11:00,-4.1,-7.9,30.65,SW,219,4.0,5.0,83,0.00,,---,0.00,VWS V13.00,2013-11-21 03:11:00,
2013-11-20 20:16:00,-4.4,-8.2,30.65,SW,216,4.0,5.0,83,0.00,,---,0.00,VWS V13.00,2013-11-21 03:16:00,
2013-11-20 20:21:00,-4.7,-8.8,30.67,SE,141,6.0,7.0,82,0.00,,---,0.00,VWS V13.00,2013-11-21 03:21:00,
2013-11-20 20:26:00,-5.1,-8.9,30.67,SE,128,6.0,9.0,83,0.00,,---,0.00,VWS V13.00,2013-11-21 03:26:00,
2013-11-20 20:31:00,-5.3,-9.4,30.67,SE,129,6.0,9.0,82,0.00,,---,0.00,VWS V13.00,2013-11-21 03:31:00,
2013-11-20 20:36:00,-5.6,-9.7,30.67,SE,142,6.0,9.0,82,0.00,,---,0.00,VWS V13.00,2013-11-21 03:36:00,
2013-11-20 20:41:00,-5.5,-9.3,30.67,SE,142,5.0,7.0,83,0.00,,---,0.00,VWS V13.00,2013-11-21 03:41:00,
2013-11-20 20:46:00,-5.6,-9.7,30.67,SE,143,6.0,7.0,82,0.00,,---,0.00,VWS V13.00,2013-11-21 03:46:00,
2013-11-20 20:51:00,-5.8,-9.9,30.68,SE,143,5.0,7.0,82,0.00,,---,0.00,VWS V13.00,2013-11-21 03:51:00,
2013-11-20 20:56:00,-5.6,-9.4,30.68,SE,143,5.0,7.0,83,0.00,,---,0.00,VWS V13.00,2013-11-21 03:56:00,
2013-11-20 21:01:00,-5.7,-9.8,30.68,SE,142,3.0,7.0,82,0.00,,---,0.00,VWS V13.00,2013-11-21 04:01:00,
2013-11-20 21:06:00,-6.3,-10.4,30.68,SE,143,4.0,7.0,82,0.00,,---,0.00,VWS V13.00,2013-11-21 04:06:00,
2013-11-20 21:11:00,-6.6,-10.6,30.68,SE,143,6.0,7.0,82,0.00,,---,0.00,VWS V13.00,2013-11-21 04:11:00,
2013-11-20 21:16:00,-6.9,-10.9,30.68,SE,142,6.0,7.0,82,0.00,,---,0.00,VWS V13.00,2013-11-21 04:16:00,
2013-11-20 21:21:00,-6.5,-10.3,30.68,SE,140,5.0,8.0,83,0.00,,---,0.00,VWS V13.00,2013-11-21 04:21:00,
2013-11-20 21:26:00,-6.3,-10.4,30.68,SE,138,8.0,9.0,82,0.00,,---,0.00,VWS V13.00,2013-11-21 04:26:00,
2013-11-20 21:31:00,-6.5,-10.6,30.68,SSE,150,7.0,10.0,82,0.00,,---,0.00,VWS V13.00,2013-11-21 04:31:00,
2013-11-20 21:36:00,-6.2,-10.0,30.68,SE,142,5.0,11.0,83,0.00,,---,0.00,VWS V13.00,2013-11-21 04:36:00,
2013-11-20 21:41:00,-5.9,-9.7,30.68,SE,142,6.0,7.0,83,0.00,,---,0.00,VWS V13.00,2013-11-21 04:41:00,
2013-11-20 21:46:00,-6.0,-10.1,30.68,SE,142,5.0,7.0,82,0.00,,---,0.00,VWS V13.00,2013-11-21 04:46:00,
2013-11-20 21:51:00,-6.7,-11.0,30.68,SE,142,7.0,8.0,81,0.00,,---,0.00,VWS V13.00,2013-11-21 04:51:00,
2013-11-20 21:56:00,-7.1,-11.1,30.68,SE,142,8.0,9.0,82,0.00,,---,0.00,VWS V13.00,2013-11-21 04:56:00,
2013-11-20 22:01:00,-6.9,-10.9,30.68,SE,142,7.0,9.0,82,0.00,,---,0.00,VWS V13.00,2013-11-21 05:01:00,
2013-11-20 22:06:00,-7.3,-11.6,30.68,SE,142,7.0,9.0,81,0.00,,---,0.00,VWS V13.00,2013-11-21 05:06:00,
2013-11-20 22:11:00,-7.5,-11.8,30.68,SE,142,6.0,8.0,81,0.00,,---,0.00,VWS V13.00,2013-11-21 05:11:00,
2013-11-20 22:16:00,-7.5,-11.5,30.68,SE,141,6.0,9.0,82,0.00,,---,0.00,VWS V13.00,2013-11-21 05:16:00,
2013-11-20 22:21:00,-7.4,-11.4,30.68,SE,142,6.0,9.0,82,0.00,,---,0.00,VWS V13.00,2013-11-21 05:21:00,
2013-11-20 22:26:00,-7.5,-11.5,30.68,SE,141,8.0,10.0,82,0.00,,---,0.00,VWS V13.00,2013-11-21 05:26:00,
2013-11-20 22:31:00,-7.2,-11.2,30.68,SSE,147,9.0,10.0,82,0.00,,---,0.00,VWS V13.00,2013-11-21 05:31:00,
2013-11-20 22:36:00,-6.5,-10.3,30.68,SE,141,9.0,10.0,83,0.00,,---,0.00,VWS V13.00,2013-11-21 05:36:00,
2013-11-20 22:41:00,-6.2,-10.2,30.68,SE,140,4.0,9.0,82,0.00,,---,0.00,VWS V13.00,2013-11-21 05:41:00,
2013-11-20 22:46:00,-6.2,-10.2,30.68,SE,140,5.0,9.0,82,0.00,,---,0.00,VWS V13.00,2013-11-21 05:46:00,
2013-11-20 22:51:00,-6.4,-10.4,30.68,SE,140,5.0,9.0,82,0.00,,---,0.00,VWS V13.00,2013-11-21 05:51:00,
2013-11-20 22:56:00,-6.5,-10.6,30.68,SE,144,9.0,11.0,82,0.00,,---,0.00,VWS V13.00,2013-11-21 05:56:00,
2013-11-20 22:57:00,-6.5,-10.6,30.68,SSE,148,9.0,11.0,82,0.00,,---,0.00,VWS V13.00,2013-11-21 05:57:00,
2013-11-20 23:02:00,-6.3,-10.4,30.68,SE,146,10.0,11.0,82,0.00,,---,0.00,VWS V13.00,2013-11-21 06:02:00,
2013-11-20 23:07:00,-6.1,-10.1,30.68,SE,139,7.0,7.0,82,0.00,,---,0.00,VWS V13.00,2013-11-21 06:07:00,
2013-11-20 23:12:00,-5.9,-10.0,30.68,SE,141,8.0,11.0,82,0.00,,---,0.00,VWS V13.00,2013-11-21 06:12:00,
2013-11-20 23:17:00,-6.2,-10.2,30.68,SSE,149,10.0,11.0,82,0.00,,---,0.00,VWS V13.00,2013-11-21 06:17:00,
2013-11-20 23:22:00,-6.2,-10.2,30.67,SE,146,9.0,11.0,82,0.00,,---,0.00,VWS V13.00,2013-11-21 06:22:00,
2013-11-20 23:27:00,-6.1,-10.1,30.67,SE,146,9.0,11.0,82,0.00,,---,0.00,VWS V13.00,2013-11-21 06:27:00,
2013-11-20 23:32:00,-6.4,-10.4,30.67,SE,146,11.0,11.0,82,0.00,,---,0.00,VWS V13.00,2013-11-21 06:32:00,
2013-11-20 23:37:00,-6.4,-10.4,30.68,SSE,149,10.0,11.0,82,0.00,,---,0.00,VWS V13.00,2013-11-21 06:37:00,
2013-11-20 23:42:00,-6.2,-10.2,30.68,SSE,149,10.0,11.0,82,0.00,,---,0.00,VWS V13.00,2013-11-21 06:42:00,
2013-11-20 23:47:00,-6.2,-10.2,30.68,SSE,149,7.0,11.0,82,0.00,,---,0.00,VWS V13.00,2013-11-21 06:47:00,
2013-11-20 23:52:00,-6.2,-10.2,30.68,SSE,149,6.0,11.0,82,0.00,,---,0.00,VWS V13.00,2013-11-21 06:52:00,
2013-11-20 23:57:00,-6.2,-10.2,30.68,SE,146,7.0,11.0,82,0.00,,---,0.00,VWS V13.00,2013-11-21 06:57:00,